Time,TemperatureF,DewpointF,PressureIn,WindDirection,WindDirectionDegrees,WindSpeedMPH,WindSpeedGustMPH,Humidity,HourlyPrecipIn,Conditions,Clouds,dailyrainin,SoftwareType,DateUTC
2013-05-26 00:00:00,39.9,17.0,33.00,West,264,0.0,0.0,39,0.00,,---,0.00,VWS V14.01,2013-05-26 04:00:00,
2013-05-26 00:01:00,39.9,17.0,33.00,West,264,0.0,0.0,39,0.00,,---,0.00,VWS V14.01,2013-05-26 04:01:00,
2013-05-26 00:06:00,39.9,17.0,33.00,West,264,0.0,0.0,39,0.00,,---,0.00,VWS V14.01,2013-05-26 04:06:00,
2013-05-26 00:11:00,39.7,16.8,33.00,West,264,0.0,0.0,39,0.00,,---,0.00,VWS V14.01,2013-05-26 04:11:00,
2013-05-26 00:16:00,39.6,16.7,33.00,West,264,0.0,0.0,39,0.00,,---,0.00,VWS V14.01,2013-05-26 04:16:00,
2013-05-26 00:21:00,39.4,16.5,33.00,West,264,0.0,0.0,39,0.00,,---,0.00,VWS V14.01,2013-05-26 04:21:00,
2013-05-26 00:26:00,39.0,16.2,33.00,West,264,0.0,0.0,39,0.00,,---,0.00,VWS V14.01,2013-05-26 04:26:00,
2013-05-26 00:31:00,38.8,16.0,33.00,West,264,0.0,0.0,39,0.00,,---,0.00,VWS V14.01,2013-05-26 04:31:00,
2013-05-26 00:36:00,38.7,15.9,33.00,West,264,0.0,0.0,39,0.00,,---,0.00,VWS V14.01,2013-05-26 04:36:00,
2013-05-26 00:41:00,38.5,15.7,33.00,West,264,0.0,0.0,39,0.00,,---,0.00,VWS V14.01,2013-05-26 04:41:00,
2013-05-26 00:46:00,38.5,15.7,33.00,West,264,0.0,0.0,39,0.00,,---,0.00,VWS V14.01,2013-05-26 04:46:00,
2013-05-26 00:51:00,38.3,15.5,33.00,West,264,0.0,0.0,39,0.00,,---,0.00,VWS V14.01,2013-05-26 04:51:00,
2013-05-26 00:56:00,38.5,15.7,33.00,West,264,0.0,0.0,39,0.00,,---,0.00,VWS V14.01,2013-05-26 04:56:00,
2013-05-26 01:01:00,38.5,15.7,33.00,West,264,0.0,0.0,39,0.00,,---,0.00,VWS V14.01,2013-05-26 05:01:00,
2013-05-26 01:06:00,38.8,16.0,33.00,West,264,0.0,0.0,39,0.00,,---,0.00,VWS V14.01,2013-05-26 05:06:00,
2013-05-26 01:11:00,38.7,15.9,33.00,West,264,0.0,0.0,39,0.00,,---,0.00,VWS V14.01,2013-05-26 05:11:00,
2013-05-26 01:16:00,38.8,16.0,33.00,WSW,258,0.0,0.0,39,0.00,,---,0.00,VWS V14.01,2013-05-26 05:16:00,
2013-05-26 01:21:00,39.2,16.3,33.00,WSW,258,0.0,0.0,39,0.00,,---,0.00,VWS V14.01,2013-05-26 05:21:00,
2013-05-26 01:26:00,39.7,16.8,33.00,NNW,335,0.0,0.0,39,0.00,,---,0.00,VWS V14.01,2013-05-26 05:26:00,
2013-05-26 01:31:00,39.9,17.0,33.00,WNW,290,0.0,0.0,39,0.00,,---,0.00,VWS V14.01,2013-05-26 05:31:00,
2013-05-26 01:36:00,39.9,17.0,33.00,WNW,290,0.0,0.0,39,0.00,,---,0.00,VWS V14.01,2013-05-26 05:36:00,
2013-05-26 01:41:00,39.7,16.8,33.00,WNW,290,0.0,0.0,39,0.00,,---,0.00,VWS V14.01,2013-05-26 05:41:00,
2013-05-26 01:46:00,39.7,16.8,33.00,WNW,301,0.0,0.0,39,0.00,,---,0.00,VWS V14.01,2013-05-26 05:46:00,
2013-05-26 01:51:00,39.4,16.5,33.00,WNW,301,0.0,0.0,39,0.00,,---,0.00,VWS V14.01,2013-05-26 05:51:00,
2013-05-26 01:56:00,39.2,16.3,33.00,WNW,301,0.0,0.0,39,0.00,,---,0.00,VWS V14.01,2013-05-26 05:56:00,
2013-05-26 02:01:00,39.0,16.2,33.00,WNW,301,0.0,0.0,39,0.00,,---,0.00,VWS V14.01,2013-05-26 06:01:00,
2013-05-26 02:06:00,38.7,15.9,33.00,WNW,301,0.0,0.0,39,0.00,,---,0.00,VWS V14.01,2013-05-26 06:06:00,
2013-05-26 02:11:00,38.7,15.9,33.00,WNW,301,0.0,0.0,39,0.00,,---,0.00,VWS V14.01,2013-05-26 06:11:00,
2013-05-26 02:16:00,38.5,15.7,33.00,WNW,301,0.0,0.0,39,0.00,,---,0.00,VWS V14.01,2013-05-26 06:16:00,
2013-05-26 02:21:00,38.5,15.7,33.00,WNW,301,0.0,0.0,39,0.00,,---,0.00,VWS V14.01,2013-05-26 06:21:00,
2013-05-26 02:26:00,38.5,15.7,33.00,WNW,301,0.0,0.0,39,0.00,,---,0.00,VWS V14.01,2013-05-26 06:26:00,
2013-05-26 02:31:00,38.1,15.4,33.00,WNW,301,0.0,0.0,39,0.00,,---,0.00,VWS V14.01,2013-05-26 06:31:00,
2013-05-26 02:36:00,38.1,15.4,33.00,WNW,301,0.0,0.0,39,0.00,,---,0.00,VWS V14.01,2013-05-26 06:36:00,
2013-05-26 02:41:00,38.3,15.5,33.00,WNW,301,0.0,0.0,39,0.00,,---,0.00,VWS V14.01,2013-05-26 06:41:00,
2013-05-26 02:46:00,38.1,15.4,33.00,WNW,301,0.0,0.0,39,0.00,,---,0.00,VWS V14.01,2013-05-26 06:46:00,
2013-05-26 02:51:00,38.1,15.4,33.00,NW,311,0.0,0.0,39,0.00,,---,0.00,VWS V14.01,2013-05-26 06:51:00,
2013-05-26 02:56:00,38.1,15.4,33.00,NW,311,0.0,0.0,39,0.00,,---,0.00,VWS V14.01,2013-05-26 06:56:00,
2013-05-26 03:01:00,38.3,15.5,33.00,NW,311,0.0,0.0,39,0.00,,---,0.00,VWS V14.01,2013-05-26 07:01:00,
2013-05-26 03:06:00,38.1,15.4,33.00,NW,311,0.0,0.0,39,0.00,,---,0.00,VWS V14.01,2013-05-26 07:06:00,
2013-05-26 03:11:00,37.9,15.2,33.00,NW,311,0.0,0.0,39,0.00,,---,0.00,VWS V14.01,2013-05-26 07:11:00,
2013-05-26 03:16:00,37.9,15.2,33.00,NW,321,0.0,0.0,39,0.00,,---,0.00,VWS V14.01,2013-05-26 07:16:00,
2013-05-26 03:21:00,38.1,15.4,33.00,NW,321,0.0,0.0,39,0.00,,---,0.00,VWS V14.01,2013-05-26 07:21:00,
2013-05-26 03:26:00,37.9,15.2,33.00,NW,321,0.0,0.0,39,0.00,,---,0.00,VWS V14.01,2013-05-26 07:26:00,
2013-05-26 03:31:00,37.8,15.0,33.00,NW,321,0.0,0.0,39,0.00,,---,0.00,VWS V14.01,2013-05-26 07:31:00,
2013-05-26 03:36:00,37.6,14.9,33.00,NW,321,0.0,0.0,39,0.00,,---,0.00,VWS V14.01,2013-05-26 07:36:00,
2013-05-26 03:41:00,37.4,14.7,33.00,NW,321,0.0,0.0,39,0.00,,---,0.00,VWS V14.01,2013-05-26 07:41:00,
2013-05-26 03:46:00,37.4,14.7,33.00,NW,321,0.0,0.0,39,0.00,,---,0.00,VWS V14.01,2013-05-26 07:46:00,
2013-05-26 03:51:00,37.2,15.1,33.00,NW,321,0.0,0.0,40,0.00,,---,0.00,VWS V14.01,2013-05-26 07:51:00,
2013-05-26 03:56:00,37.0,15.0,33.00,NW,321,0.0,0.0,40,0.00,,---,0.00,VWS V14.01,2013-05-26 07:56:00,
2013-05-26 04:01:00,37.0,15.0,33.00,NW,321,0.0,0.0,40,0.00,,---,0.00,VWS V14.01,2013-05-26 08:01:00,
2013-05-26 04:06:00,36.9,14.8,33.00,NW,321,0.0,0.0,40,0.00,,---,0.00,VWS V14.01,2013-05-26 08:06:00,
2013-05-26 04:11:00,36.7,14.6,33.00,NW,321,0.0,0.0,40,0.00,,---,0.00,VWS V14.01,2013-05-26 08:11:00,
2013-05-26 04:16:00,36.7,14.6,33.00,NW,321,0.0,0.0,40,0.00,,---,0.00,VWS V14.01,2013-05-26 08:16:00,
2013-05-26 04:21:00,36.5,14.5,33.00,NW,321,0.0,0.0,40,0.00,,---,0.00,VWS V14.01,2013-05-26 08:21:00,
2013-05-26 04:26:00,36.3,14.3,33.00,NW,321,0.0,0.0,40,0.00,,---,0.00,VWS V14.01,2013-05-26 08:26:00,
2013-05-26 04:31:00,36.1,14.2,33.00,NW,321,0.0,0.0,40,0.00,,---,0.00,VWS V14.01,2013-05-26 08:31:00,
2013-05-26 04:36:00,36.1,14.2,33.00,NW,321,0.0,0.0,40,0.00,,---,0.00,VWS V14.01,2013-05-26 08:36:00,
2013-05-26 04:41:00,36.1,14.2,33.00,NW,321,0.0,0.0,40,0.00,,---,0.00,VWS V14.01,2013-05-26 08:41:00,
2013-05-26 04:46:00,36.1,14.2,33.00,NW,321,0.0,0.0,40,0.00,,---,0.00,VWS V14.01,2013-05-26 08:46:00,
2013-05-26 04:51:00,36.1,14.2,33.00,NW,321,0.0,0.0,40,0.00,,---,0.00,VWS V14.01,2013-05-26 08:51:00,
2013-05-26 04:56:00,36.1,14.2,33.00,NW,321,0.0,0.0,40,0.00,,---,0.00,VWS V14.01,2013-05-26 08:56:00,
2013-05-26 05:01:00,36.1,14.2,33.00,NW,321,0.0,0.0,40,0.00,,---,0.00,VWS V14.01,2013-05-26 09:01:00,
2013-05-26 05:06:00,36.1,14.2,33.00,NW,321,0.0,0.0,40,0.00,,---,0.00,VWS V14.01,2013-05-26 09:06:00,
2013-05-26 05:11:00,36.1,14.2,33.00,NW,321,0.0,0.0,40,0.00,,---,0.00,VWS V14.01,2013-05-26 09:11:00,
2013-05-26 05:16:00,36.0,14.0,33.00,NW,321,0.0,0.0,40,0.00,,---,0.00,VWS V14.01,2013-05-26 09:16:00,
2013-05-26 05:21:00,36.0,14.0,33.00,NW,321,0.0,0.0,40,0.00,,---,0.00,VWS V14.01,2013-05-26 09:21:00,
2013-05-26 05:26:00,35.8,13.8,33.00,NW,321,0.0,0.0,40,0.00,,---,0.00,VWS V14.01,2013-05-26 09:26:00,
2013-05-26 05:31:00,35.8,13.8,33.00,NW,321,0.0,0.0,40,0.00,,---,0.00,VWS V14.01,2013-05-26 09:31:00,
2013-05-26 05:36:00,35.6,13.7,33.00,NW,321,0.0,0.0,40,0.00,,---,0.00,VWS V14.01,2013-05-26 09:36:00,
2013-05-26 05:41:00,35.6,13.7,33.00,NW,321,0.0,0.0,40,0.00,,---,0.00,VWS V14.01,2013-05-26 09:41:00,
2013-05-26 05:46:00,35.4,13.5,33.00,NW,321,0.0,0.0,40,0.00,,---,0.00,VWS V14.01,2013-05-26 09:46:00,
2013-05-26 05:51:00,35.4,13.5,33.00,NW,321,0.0,0.0,40,0.00,,---,0.00,VWS V14.01,2013-05-26 09:51:00,
2013-05-26 05:56:00,35.2,13.4,33.00,NW,321,0.0,0.0,40,0.00,,---,0.00,VWS V14.01,2013-05-26 09:56:00,
2013-05-26 06:01:00,35.1,13.2,33.00,NW,321,0.0,0.0,40,0.00,,---,0.00,VWS V14.01,2013-05-26 10:01:00,
2013-05-26 06:06:00,35.1,13.2,33.00,NW,321,0.0,0.0,40,0.00,,---,0.00,VWS V14.01,2013-05-26 10:06:00,
2013-05-26 06:11:00,35.1,13.2,33.00,NW,321,0.0,0.0,40,0.00,,---,0.00,VWS V14.01,2013-05-26 10:11:00,
2013-05-26 06:16:00,35.1,13.2,33.00,NW,321,0.0,0.0,40,0.00,,---,0.00,VWS V14.01,2013-05-26 10:16:00,
2013-05-26 06:21:00,35.1,13.2,33.00,NW,321,0.0,0.0,40,0.00,,---,0.00,VWS V14.01,2013-05-26 10:21:00,
2013-05-26 06:26:00,35.1,13.2,33.00,NW,321,0.0,0.0,40,0.00,,---,0.00,VWS V14.01,2013-05-26 10:26:00,
2013-05-26 06:31:00,35.2,13.4,33.00,NW,321,0.0,0.0,40,0.00,,---,0.00,VWS V14.01,2013-05-26 10:31:00,
2013-05-26 06:36:00,35.4,13.5,33.00,NW,321,0.0,0.0,40,0.00,,---,0.00,VWS V14.01,2013-05-26 10:36:00,
2013-05-26 06:41:00,35.6,13.7,33.00,NW,321,0.0,0.0,40,0.00,,---,0.00,VWS V14.01,2013-05-26 10:41:00,
2013-05-26 06:45:00,35.8,13.8,33.00,NW,321,0.0,0.0,40,0.00,,---,0.00,VWS V14.01,2013-05-26 10:45:00,
2013-05-26 06:50:00,36.0,14.0,33.00,NW,321,0.0,0.0,40,0.00,,---,0.00,VWS V14.01,2013-05-26 10:50:00,
2013-05-26 06:55:00,36.1,14.2,33.00,WNW,303,0.0,0.0,40,0.00,,---,0.00,VWS V14.01,2013-05-26 10:55:00,
2013-05-26 07:01:00,36.3,14.3,33.00,WNW,303,0.0,0.0,40,0.00,,---,0.00,VWS V14.01,2013-05-26 11:01:00,
2013-05-26 07:05:00,36.5,14.5,33.00,NW,314,0.0,0.0,40,0.00,,---,0.00,VWS V14.01,2013-05-26 11:05:00,
2013-05-26 07:11:00,36.9,14.8,33.00,NW,314,0.0,0.0,40,0.00,,---,0.00,VWS V14.01,2013-05-26 11:11:00,
2013-05-26 07:15:00,37.2,15.1,33.00,NW,314,0.0,0.0,40,0.00,,---,0.00,VWS V14.01,2013-05-26 11:15:00,
2013-05-26 07:20:00,37.8,15.0,33.00,NNW,341,0.0,0.0,39,0.00,,---,0.00,VWS V14.01,2013-05-26 11:20:00,
2013-05-26 07:25:00,38.1,15.4,33.00,NNW,335,0.0,0.0,39,0.00,,---,0.00,VWS V14.01,2013-05-26 11:25:00,
2013-05-26 07:30:00,38.5,15.7,33.00,North,357,0.0,0.0,39,0.00,,---,0.00,VWS V14.01,2013-05-26 11:30:00,
2013-05-26 07:35:00,38.7,15.9,33.00,WNW,290,0.0,0.0,39,0.00,,---,0.00,VWS V14.01,2013-05-26 11:35:00,
2013-05-26 07:40:00,38.8,16.0,33.00,NW,318,0.0,0.0,39,0.00,,---,0.00,VWS V14.01,2013-05-26 11:40:00,
2013-05-26 07:45:00,39.2,16.3,33.00,NW,318,0.0,0.0,39,0.00,,---,0.00,VWS V14.01,2013-05-26 11:45:00,
2013-05-26 07:50:00,39.4,16.5,33.00,WNW,293,0.0,0.0,39,0.00,,---,0.00,VWS V14.01,2013-05-26 11:50:00,
2013-05-26 07:55:00,39.4,16.5,33.00,WNW,282,0.0,0.0,39,0.00,,---,0.00,VWS V14.01,2013-05-26 11:55:00,
2013-05-26 08:00:00,39.6,16.7,33.00,NNE,14,0.0,0.0,39,0.00,,---,0.00,VWS V14.01,2013-05-26 12:00:00,
2013-05-26 08:05:00,39.7,16.8,33.00,NNE,12,0.0,0.0,39,0.00,,---,0.00,VWS V14.01,2013-05-26 12:05:00,
2013-05-26 08:10:00,39.7,16.8,33.00,NNE,21,0.0,0.0,39,0.00,,---,0.00,VWS V14.01,2013-05-26 12:10:00,
2013-05-26 08:15:00,39.9,17.0,33.00,NNW,337,0.0,0.0,39,0.00,,---,0.00,VWS V14.01,2013-05-26 12:15:00,
2013-05-26 08:20:00,40.1,17.1,33.00,SW,232,0.0,0.0,39,0.00,,---,0.00,VWS V14.01,2013-05-26 12:20:00,
2013-05-26 08:25:00,40.3,17.3,33.00,WNW,284,0.0,0.0,39,0.00,,---,0.00,VWS V14.01,2013-05-26 12:25:00,
2013-05-26 08:30:00,40.6,17.6,33.00,West,268,0.0,2.7,39,0.00,,---,0.00,VWS V14.01,2013-05-26 12:30:00,
2013-05-26 08:35:00,40.8,17.8,33.00,WSW,247,0.0,0.0,39,0.00,,---,0.00,VWS V14.01,2013-05-26 12:35:00,
2013-05-26 08:40:00,41.0,17.4,33.00,North,2,0.0,0.0,38,0.00,,---,0.00,VWS V14.01,2013-05-26 12:40:00,
2013-05-26 08:45:00,41.5,17.8,33.00,North,349,2.7,2.7,38,0.00,,---,0.00,VWS V14.01,2013-05-26 12:45:00,
2013-05-26 08:50:00,41.9,18.2,33.00,NW,322,0.0,0.0,38,0.00,,---,0.00,VWS V14.01,2013-05-26 12:50:00,
2013-05-26 08:55:00,42.1,18.3,33.00,WSW,237,3.1,3.1,38,0.00,,---,0.00,VWS V14.01,2013-05-26 12:55:00,
2013-05-26 09:00:00,42.4,18.6,33.00,North,353,0.0,0.0,38,0.00,,---,0.00,VWS V14.01,2013-05-26 13:00:00,
2013-05-26 09:05:00,42.8,19.0,33.00,NNW,335,0.0,0.0,38,0.00,,---,0.00,VWS V14.01,2013-05-26 13:05:00,
2013-05-26 09:10:00,43.2,19.3,33.00,NW,308,0.0,0.0,38,0.00,,---,0.00,VWS V14.01,2013-05-26 13:10:00,
2013-05-26 09:15:00,43.7,19.8,33.00,NNE,16,0.0,0.0,38,0.00,,---,0.00,VWS V14.01,2013-05-26 13:15:00,
2013-05-26 09:20:00,44.2,20.3,33.00,NNW,327,0.0,0.0,38,0.00,,---,0.00,VWS V14.01,2013-05-26 13:20:00,
2013-05-26 09:25:00,44.6,20.6,33.00,NNE,12,0.0,0.0,38,0.00,,---,0.00,VWS V14.01,2013-05-26 13:25:00,
2013-05-26 09:30:00,45.0,20.9,33.00,WSW,254,0.0,0.0,38,0.00,,---,0.00,VWS V14.01,2013-05-26 13:30:00,
2013-05-26 09:35:00,45.3,21.2,33.00,NW,321,0.0,0.0,38,0.00,,---,0.00,VWS V14.01,2013-05-26 13:35:00,
2013-05-26 09:40:00,45.9,21.7,33.00,NW,325,0.0,0.0,38,0.00,,---,0.00,VWS V14.01,2013-05-26 13:40:00,
2013-05-26 09:45:00,46.4,21.6,33.00,NNE,16,0.0,0.0,37,0.00,,---,0.00,VWS V14.01,2013-05-26 13:45:00,
2013-05-26 09:50:00,46.8,21.9,33.00,WNW,287,0.0,0.0,37,0.00,,---,0.00,VWS V14.01,2013-05-26 13:50:00,
2013-05-26 09:55:00,47.3,22.4,33.00,North,4,0.0,0.0,37,0.00,,---,0.00,VWS V14.01,2013-05-26 13:55:00,
2013-05-26 10:00:00,47.5,22.5,33.00,NNE,14,4.0,4.0,37,0.00,,---,0.00,VWS V14.01,2013-05-26 14:00:00,
2013-05-26 10:05:00,47.8,22.9,33.00,WSW,246,0.0,0.0,37,0.00,,---,0.00,VWS V14.01,2013-05-26 14:05:00,
2013-05-26 10:10:00,48.0,23.0,33.00,North,357,0.0,0.0,37,0.00,,---,0.00,VWS V14.01,2013-05-26 14:10:00,
2013-05-26 10:15:00,48.2,23.2,33.00,WSW,241,3.6,3.6,37,0.00,,---,0.00,VWS V14.01,2013-05-26 14:15:00,
2013-05-26 10:20:00,48.6,23.5,33.00,WNW,294,2.7,2.7,37,0.00,,---,0.00,VWS V14.01,2013-05-26 14:20:00,
2013-05-26 10:25:00,48.9,23.8,33.00,NNE,24,3.6,3.6,37,0.00,,---,0.00,VWS V14.01,2013-05-26 14:25:00,
2013-05-26 10:30:00,49.1,24.0,33.00,North,357,0.0,0.0,37,0.00,,---,0.00,VWS V14.01,2013-05-26 14:30:00,
2013-05-26 10:35:00,49.6,24.5,33.00,NNE,26,0.0,0.0,37,0.00,,---,0.00,VWS V14.01,2013-05-26 14:35:00,
2013-05-26 10:40:00,49.6,24.5,33.00,West,273,2.2,4.9,37,0.00,,---,0.00,VWS V14.01,2013-05-26 14:40:00,
2013-05-26 10:45:00,49.8,24.6,33.00,NW,317,2.7,2.7,37,0.00,,---,0.00,VWS V14.01,2013-05-26 14:45:00,
2013-05-26 10:50:00,50.2,24.3,33.00,North,6,0.0,2.7,36,0.00,,---,0.00,VWS V14.01,2013-05-26 14:50:00,
2013-05-26 10:55:00,50.5,24.6,33.00,WNW,289,0.0,0.0,36,0.00,,---,0.00,VWS V14.01,2013-05-26 14:55:00,
2013-05-26 11:00:00,50.7,24.8,33.00,NNE,27,3.6,3.6,36,0.00,,---,0.00,VWS V14.01,2013-05-26 15:00:00,
2013-05-26 11:05:00,51.1,25.1,33.00,WSW,257,2.7,2.7,36,0.00,,---,0.00,VWS V14.01,2013-05-26 15:05:00,
2013-05-26 11:10:00,51.4,25.4,33.00,SSW,212,0.0,2.2,36,0.00,,---,0.00,VWS V14.01,2013-05-26 15:10:00,
2013-05-26 11:15:00,51.3,25.2,33.00,East,94,3.6,5.4,36,0.00,,---,0.00,VWS V14.01,2013-05-26 15:15:00,
2013-05-26 11:20:00,51.8,25.7,33.00,NW,314,2.2,2.7,36,0.00,,---,0.00,VWS V14.01,2013-05-26 15:20:00,
2013-05-26 11:25:00,51.8,25.7,33.00,South,185,5.4,5.4,36,0.00,,---,0.00,VWS V14.01,2013-05-26 15:25:00,
2013-05-26 11:30:00,52.2,26.0,33.00,SW,231,5.4,5.4,36,0.00,,---,0.00,VWS V14.01,2013-05-26 15:30:00,
2013-05-26 11:35:00,52.3,26.2,33.00,North,0,2.2,3.1,36,0.00,,---,0.00,VWS V14.01,2013-05-26 15:35:00,
2013-05-26 11:40:00,52.3,26.2,33.00,West,277,3.1,4.0,36,0.00,,---,0.00,VWS V14.01,2013-05-26 15:40:00,
2013-05-26 11:45:00,52.5,26.4,33.00,NNE,27,3.1,4.0,36,0.00,,---,0.00,VWS V14.01,2013-05-26 15:45:00,
2013-05-26 11:50:00,53.1,26.8,33.00,WNW,291,0.0,0.0,36,0.00,,---,0.00,VWS V14.01,2013-05-26 15:50:00,
2013-05-26 11:55:00,53.4,27.1,33.00,SE,140,0.0,2.7,36,0.00,,---,0.00,VWS V14.01,2013-05-26 15:55:00,
2013-05-26 12:00:00,53.2,27.0,33.00,WSW,248,0.0,3.1,36,0.00,,---,0.00,VWS V14.01,2013-05-26 16:00:00,
2013-05-26 12:05:00,53.8,27.5,33.00,SSW,206,3.6,5.8,36,0.00,,---,0.00,VWS V14.01,2013-05-26 16:05:00,
2013-05-26 12:10:00,54.5,28.1,33.00,East,83,0.0,0.0,36,0.00,,---,0.00,VWS V14.01,2013-05-26 16:10:00,
2013-05-26 12:15:00,54.5,28.1,33.00,North,353,2.7,2.7,36,0.00,,---,0.00,VWS V14.01,2013-05-26 16:15:00,
2013-05-26 12:20:00,54.5,28.1,33.00,SW,227,6.3,6.3,36,0.00,,---,0.00,VWS V14.01,2013-05-26 16:20:00,
2013-05-26 12:25:00,54.9,28.4,33.00,NE,42,4.5,4.5,36,0.00,,---,0.00,VWS V14.01,2013-05-26 16:25:00,
2013-05-26 12:30:00,55.2,28.8,33.00,WSW,254,2.7,3.1,36,0.00,,---,0.00,VWS V14.01,2013-05-26 16:30:00,
2013-05-26 12:35:00,55.8,28.5,33.00,NNE,20,2.7,2.7,35,0.00,,---,0.00,VWS V14.01,2013-05-26 16:35:00,
2013-05-26 12:40:00,56.3,29.0,33.00,NW,324,3.6,3.6,35,0.00,,---,0.00,VWS V14.01,2013-05-26 16:40:00,
2013-05-26 12:45:00,57.0,29.7,33.00,SW,220,2.7,5.4,35,0.00,,---,0.00,VWS V14.01,2013-05-26 16:45:00,
2013-05-26 12:50:00,57.6,30.1,33.00,North,0,0.0,0.0,35,0.00,,---,0.00,VWS V14.01,2013-05-26 16:50:00,
2013-05-26 12:55:00,57.2,29.8,33.00,West,273,2.2,2.7,35,0.00,,---,0.00,VWS V14.01,2013-05-26 16:55:00,
2013-05-26 13:00:00,57.4,30.0,33.00,WNW,301,3.1,3.6,35,0.00,,---,0.00,VWS V14.01,2013-05-26 17:00:00,
2013-05-26 13:05:00,57.7,30.3,33.00,NNE,24,2.2,4.9,35,0.00,,---,0.00,VWS V14.01,2013-05-26 17:05:00,
2013-05-26 13:10:00,58.5,30.9,33.00,SW,233,2.7,2.7,35,0.00,,---,0.00,VWS V14.01,2013-05-26 17:10:00,
2013-05-26 13:15:00,58.5,30.9,33.00,NNW,330,2.7,4.0,35,0.00,,---,0.00,VWS V14.01,2013-05-26 17:15:00,
2013-05-26 13:20:00,59.4,31.0,33.00,West,262,0.0,0.0,34,0.00,,---,0.00,VWS V14.01,2013-05-26 17:20:00,
2013-05-26 13:25:00,59.4,31.0,33.00,NW,307,2.2,2.7,34,0.00,,---,0.00,VWS V14.01,2013-05-26 17:25:00,
2013-05-26 13:30:00,59.2,30.9,33.00,NNE,18,0.0,0.0,34,0.00,,---,0.00,VWS V14.01,2013-05-26 17:30:00,
2013-05-26 13:35:00,60.6,32.1,33.00,SW,223,3.1,3.1,34,0.00,,---,0.00,VWS V14.01,2013-05-26 17:35:00,
2013-05-26 13:40:00,61.5,32.9,33.00,NE,50,0.0,0.0,34,0.00,,---,0.00,VWS V14.01,2013-05-26 17:40:00,
2013-05-26 13:45:00,61.7,33.1,33.00,NW,316,2.2,3.6,34,0.00,,---,0.00,VWS V14.01,2013-05-26 17:45:00,
2013-05-26 13:50:00,61.9,33.2,33.00,South,179,3.6,3.6,34,0.00,,---,0.00,VWS V14.01,2013-05-26 17:50:00,
2013-05-26 13:55:00,61.9,33.2,33.00,ENE,76,0.0,2.2,34,0.00,,---,0.00,VWS V14.01,2013-05-26 17:55:00,
2013-05-26 14:00:00,63.1,34.3,33.00,West,275,3.6,3.6,34,0.00,,---,0.00,VWS V14.01,2013-05-26 18:00:00,
2013-05-26 14:05:00,63.0,34.2,33.00,West,270,3.1,3.6,34,0.00,,---,0.00,VWS V14.01,2013-05-26 18:05:00,
2013-05-26 14:10:00,62.2,33.5,33.00,West,266,0.0,4.9,34,0.00,,---,0.00,VWS V14.01,2013-05-26 18:10:00,
2013-05-26 14:15:00,63.1,34.3,33.00,WNW,294,0.0,0.0,34,0.00,,---,0.00,VWS V14.01,2013-05-26 18:15:00,
2013-05-26 14:20:00,63.5,34.7,33.00,NW,322,0.0,0.0,34,0.00,,---,0.00,VWS V14.01,2013-05-26 18:20:00,
2013-05-26 14:25:00,63.5,34.7,33.00,WSW,258,0.0,2.7,34,0.00,,---,0.00,VWS V14.01,2013-05-26 18:25:00,
2013-05-26 14:30:00,63.5,34.7,33.00,West,270,2.7,2.7,34,0.00,,---,0.00,VWS V14.01,2013-05-26 18:30:00,
2013-05-26 14:35:00,63.5,34.7,33.00,North,8,4.0,4.0,34,0.00,,---,0.00,VWS V14.01,2013-05-26 18:35:00,
2013-05-26 14:40:00,63.0,34.2,33.00,SW,225,2.7,2.7,34,0.00,,---,0.00,VWS V14.01,2013-05-26 18:40:00,
2013-05-26 14:45:00,63.5,34.7,33.00,WNW,286,0.0,0.0,34,0.00,,---,0.00,VWS V14.01,2013-05-26 18:45:00,
2013-05-26 14:50:00,63.3,34.5,33.00,NW,307,0.0,0.0,34,0.00,,---,0.00,VWS V14.01,2013-05-26 18:50:00,
2013-05-26 14:55:00,63.5,34.7,33.00,SW,232,4.0,4.9,34,0.00,,---,0.00,VWS V14.01,2013-05-26 18:55:00,
2013-05-26 15:00:00,65.1,35.3,33.00,WNW,282,4.0,6.3,33,0.00,,---,0.00,VWS V14.01,2013-05-26 19:00:00,
2013-05-26 15:05:00,65.5,35.6,33.00,NNE,28,3.1,3.1,33,0.00,,---,0.00,VWS V14.01,2013-05-26 19:05:00,
2013-05-26 15:10:00,65.7,35.8,33.00,NNW,344,0.0,0.0,33,0.00,,---,0.00,VWS V14.01,2013-05-26 19:10:00,
2013-05-26 15:15:00,66.0,36.1,33.00,NW,322,0.0,3.6,33,0.00,,---,0.00,VWS V14.01,2013-05-26 19:15:00,
2013-05-26 15:20:00,66.4,36.4,33.00,North,3,2.7,2.7,33,0.00,,---,0.00,VWS V14.01,2013-05-26 19:20:00,
2013-05-26 15:25:00,66.4,36.4,33.00,SW,231,3.6,3.6,33,0.00,,---,0.00,VWS V14.01,2013-05-26 19:25:00,
2013-05-26 15:30:00,64.6,34.8,33.00,SW,234,0.0,0.0,33,0.00,,---,0.00,VWS V14.01,2013-05-26 19:30:00,
2013-05-26 15:35:00,64.8,35.0,33.00,North,357,0.0,0.0,33,0.00,,---,0.00,VWS V14.01,2013-05-26 19:35:00,
2013-05-26 15:40:00,65.5,35.6,33.00,WSW,249,3.1,3.6,33,0.00,,---,0.00,VWS V14.01,2013-05-26 19:40:00,
2013-05-26 15:45:00,65.1,35.3,33.00,SE,130,0.0,0.0,33,0.00,,---,0.00,VWS V14.01,2013-05-26 19:45:00,
2013-05-26 15:50:00,64.4,34.7,33.00,NW,312,2.7,3.1,33,0.00,,---,0.00,VWS V14.01,2013-05-26 19:50:00,
2013-05-26 15:55:00,66.0,36.1,33.00,WSW,256,0.0,0.0,33,0.00,,---,0.00,VWS V14.01,2013-05-26 19:55:00,
2013-05-26 16:00:00,68.0,37.1,33.00,West,281,0.0,2.2,32,0.00,,---,0.00,VWS V14.01,2013-05-26 20:00:00,
2013-05-26 16:05:00,66.9,36.9,33.00,NE,36,2.7,2.7,33,0.00,,---,0.00,VWS V14.01,2013-05-26 20:05:00,
2013-05-26 16:10:00,66.6,36.6,33.00,NE,52,2.2,2.7,33,0.00,,---,0.00,VWS V14.01,2013-05-26 20:10:00,
2013-05-26 16:15:00,67.6,37.5,33.00,WSW,257,3.6,3.6,33,0.00,,---,0.00,VWS V14.01,2013-05-26 20:15:00,
2013-05-26 16:20:00,66.7,36.8,33.00,NNE,13,2.2,3.6,33,0.00,,---,0.00,VWS V14.01,2013-05-26 20:20:00,
2013-05-26 16:25:00,65.5,35.6,33.00,North,0,0.0,2.7,33,0.00,,---,0.00,VWS V14.01,2013-05-26 20:25:00,
2013-05-26 16:30:00,65.5,35.6,33.00,North,10,3.6,3.6,33,0.00,,---,0.00,VWS V14.01,2013-05-26 20:30:00,
2013-05-26 16:35:00,66.6,36.6,33.00,NE,42,0.0,0.0,33,0.00,,---,0.00,VWS V14.01,2013-05-26 20:35:00,
2013-05-26 16:40:00,65.1,35.3,33.00,NNE,21,0.0,2.2,33,0.00,,---,0.00,VWS V14.01,2013-05-26 20:40:00,
2013-05-26 16:45:00,65.3,35.5,33.00,SW,226,0.0,3.6,33,0.00,,---,0.00,VWS V14.01,2013-05-26 20:45:00,
2013-05-26 16:50:00,66.0,36.1,33.00,NNW,345,0.0,2.7,33,0.00,,---,0.00,VWS V14.01,2013-05-26 20:50:00,
2013-05-26 16:55:00,67.6,37.5,33.00,WSW,252,0.0,0.0,33,0.00,,---,0.00,VWS V14.01,2013-05-26 20:55:00,
2013-05-26 17:00:00,69.4,38.3,33.00,West,271,0.0,0.0,32,0.00,,---,0.00,VWS V14.01,2013-05-26 21:00:00,
2013-05-26 17:05:00,70.5,39.3,33.00,SSW,213,2.7,2.7,32,0.00,,---,0.00,VWS V14.01,2013-05-26 21:05:00,
2013-05-26 17:10:00,69.4,38.3,33.00,WNW,302,0.0,0.0,32,0.00,,---,0.00,VWS V14.01,2013-05-26 21:10:00,
2013-05-26 17:15:00,69.6,38.5,33.00,NNW,341,3.1,3.6,32,0.00,,---,0.00,VWS V14.01,2013-05-26 21:15:00,
2013-05-26 17:20:00,68.5,37.5,33.00,SE,126,0.0,0.0,32,0.00,,---,0.00,VWS V14.01,2013-05-26 21:20:00,
2013-05-26 17:25:00,67.3,37.2,33.00,West,281,0.0,0.0,33,0.00,,---,0.00,VWS V14.01,2013-05-26 21:25:00,
2013-05-26 17:30:00,67.5,37.4,33.00,West,262,2.7,2.7,33,0.00,,---,0.00,VWS V14.01,2013-05-26 21:30:00,
2013-05-26 17:35:00,70.0,38.8,33.00,West,276,0.0,3.6,32,0.00,,---,0.00,VWS V14.01,2013-05-26 21:35:00,
2013-05-26 17:40:00,66.9,36.9,33.00,North,10,0.0,0.0,33,0.00,,---,0.00,VWS V14.01,2013-05-26 21:40:00,
2013-05-26 17:45:00,65.1,35.3,33.00,WSW,238,2.2,2.2,33,0.00,,---,0.00,VWS V14.01,2013-05-26 21:45:00,
2013-05-26 17:50:00,64.9,35.2,33.00,North,357,2.7,3.6,33,0.00,,---,0.00,VWS V14.01,2013-05-26 21:50:00,
2013-05-26 17:55:00,64.2,35.3,33.00,ESE,102,0.0,0.0,34,0.00,,---,0.00,VWS V14.01,2013-05-26 21:55:00,
2013-05-26 18:00:00,64.8,35.0,33.00,NNE,19,3.1,3.1,33,0.00,,---,0.00,VWS V14.01,2013-05-26 22:00:00,
2013-05-26 18:05:00,64.8,35.0,33.00,West,259,0.0,0.0,33,0.00,,---,0.00,VWS V14.01,2013-05-26 22:05:00,
2013-05-26 18:10:00,63.3,34.5,33.00,ENE,65,0.0,0.0,34,0.00,,---,0.00,VWS V14.01,2013-05-26 22:10:00,
2013-05-26 18:15:00,62.1,33.4,33.00,WSW,240,3.1,3.1,34,0.00,,---,0.00,VWS V14.01,2013-05-26 22:15:00,
2013-05-26 18:20:00,61.7,33.1,33.00,NNE,22,2.7,3.6,34,0.00,,---,0.00,VWS V14.01,2013-05-26 22:20:00,
2013-05-26 18:25:00,61.7,33.1,33.00,West,271,0.0,0.0,34,0.00,,---,0.00,VWS V14.01,2013-05-26 22:25:00,
2013-05-26 18:30:00,61.7,33.1,33.00,NNW,336,0.0,0.0,34,0.00,,---,0.00,VWS V14.01,2013-05-26 22:30:00,
2013-05-26 18:35:00,61.3,32.8,33.00,SSW,207,2.2,2.2,34,0.00,,---,0.00,VWS V14.01,2013-05-26 22:35:00,
2013-05-26 18:40:00,60.8,32.3,33.00,NE,36,0.0,0.0,34,0.00,,---,0.00,VWS V14.01,2013-05-26 22:40:00,
2013-05-26 18:45:00,60.8,32.3,33.00,WNW,285,2.2,4.0,34,0.00,,---,0.00,VWS V14.01,2013-05-26 22:45:00,
2013-05-26 18:50:00,60.6,32.1,33.00,South,181,2.2,2.2,34,0.00,,---,0.00,VWS V14.01,2013-05-26 22:50:00,
2013-05-26 18:55:00,60.4,32.0,33.00,NNE,27,0.0,2.2,34,0.00,,---,0.00,VWS V14.01,2013-05-26 22:55:00,
2013-05-26 19:00:00,60.4,32.0,33.00,WNW,301,0.0,0.0,34,0.00,,---,0.00,VWS V14.01,2013-05-26 23:00:00,
2013-05-26 19:05:00,60.3,31.8,33.00,WNW,291,0.0,0.0,34,0.00,,---,0.00,VWS V14.01,2013-05-26 23:05:00,
2013-05-26 19:10:00,59.9,31.5,33.00,ENE,76,0.0,0.0,34,0.00,,---,0.00,VWS V14.01,2013-05-26 23:10:00,
2013-05-26 19:15:00,59.5,31.2,33.00,WNW,294,0.0,0.0,34,0.00,,---,0.00,VWS V14.01,2013-05-26 23:15:00,
2013-05-26 19:20:00,58.8,31.2,33.00,SW,220,0.0,0.0,35,0.00,,---,0.00,VWS V14.01,2013-05-26 23:20:00,
2013-05-26 19:25:00,58.5,30.9,33.00,West,277,0.0,0.0,35,0.00,,---,0.00,VWS V14.01,2013-05-26 23:25:00,
2013-05-26 19:30:00,58.1,30.6,33.00,WSW,256,0.0,0.0,35,0.00,,---,0.00,VWS V14.01,2013-05-26 23:30:00,
2013-05-26 19:35:00,57.6,30.1,33.00,West,265,0.0,0.0,35,0.00,,---,0.00,VWS V14.01,2013-05-26 23:35:00,
2013-05-26 19:40:00,57.2,29.8,33.00,NNW,332,0.0,0.0,35,0.00,,---,0.00,VWS V14.01,2013-05-26 23:40:00,
2013-05-26 19:45:00,56.7,29.3,33.00,NNW,332,0.0,0.0,35,0.00,,---,0.00,VWS V14.01,2013-05-26 23:45:00,
2013-05-26 19:50:00,56.3,29.0,33.00,West,280,0.0,0.0,35,0.00,,---,0.00,VWS V14.01,2013-05-26 23:50:00,
2013-05-26 19:55:00,55.9,28.7,33.00,WNW,302,0.0,0.0,35,0.00,,---,0.00,VWS V14.01,2013-05-26 23:55:00,
2013-05-26 20:00:00,55.9,28.7,33.00,WNW,299,0.0,0.0,35,0.00,,---,0.00,VWS V14.01,2013-05-27 00:00:00,
2013-05-26 20:05:00,55.6,28.4,33.00,NW,312,0.0,0.0,35,0.00,,---,0.00,VWS V14.01,2013-05-27 00:05:00,
2013-05-26 20:10:00,55.2,28.8,33.00,NW,312,0.0,0.0,36,0.00,,---,0.00,VWS V14.01,2013-05-27 00:10:00,
2013-05-26 20:15:00,54.7,28.3,33.00,NW,312,0.0,0.0,36,0.00,,---,0.00,VWS V14.01,2013-05-27 00:15:00,
2013-05-26 20:20:00,54.3,28.0,33.00,NW,312,0.0,0.0,36,0.00,,---,0.00,VWS V14.01,2013-05-27 00:20:00,
2013-05-26 20:25:00,53.8,27.5,33.00,NW,312,0.0,0.0,36,0.00,,---,0.00,VWS V14.01,2013-05-27 00:25:00,
2013-05-26 20:30:00,53.2,27.0,33.00,NW,312,0.0,0.0,36,0.00,,---,0.00,VWS V14.01,2013-05-27 00:30:00,
2013-05-26 20:35:00,52.7,26.5,33.00,NW,312,0.0,0.0,36,0.00,,---,0.00,VWS V14.01,2013-05-27 00:35:00,
2013-05-26 20:40:00,52.2,26.0,33.00,NW,312,0.0,0.0,36,0.00,,---,0.00,VWS V14.01,2013-05-27 00:40:00,
2013-05-26 20:45:00,51.6,25.6,33.00,NW,312,0.0,0.0,36,0.00,,---,0.00,VWS V14.01,2013-05-27 00:45:00,
2013-05-26 20:50:00,51.1,25.1,33.00,NW,312,0.0,0.0,36,0.00,,---,0.00,VWS V14.01,2013-05-27 00:50:00,
2013-05-26 20:55:00,50.9,24.9,33.00,NW,312,0.0,0.0,36,0.00,,---,0.00,VWS V14.01,2013-05-27 00:55:00,
2013-05-26 21:00:00,50.5,24.6,33.00,NW,312,0.0,0.0,36,0.00,,---,0.00,VWS V14.01,2013-05-27 01:00:00,
2013-05-26 21:05:00,50.2,24.3,33.00,NW,312,0.0,0.0,36,0.00,,---,0.00,VWS V14.01,2013-05-27 01:05:00,
2013-05-26 21:10:00,49.6,24.5,33.00,NW,312,0.0,0.0,37,0.00,,---,0.00,VWS V14.01,2013-05-27 01:10:00,
2013-05-26 21:15:00,49.1,24.0,33.00,NW,312,0.0,0.0,37,0.00,,---,0.00,VWS V14.01,2013-05-27 01:15:00,
2013-05-26 21:20:00,48.6,23.5,33.00,NW,312,0.0,0.0,37,0.00,,---,0.00,VWS V14.01,2013-05-27 01:20:00,
2013-05-26 21:25:00,48.0,23.0,33.00,NW,312,0.0,0.0,37,0.00,,---,0.00,VWS V14.01,2013-05-27 01:25:00,
2013-05-26 21:30:00,47.8,22.9,33.00,NW,312,0.0,0.0,37,0.00,,---,0.00,VWS V14.01,2013-05-27 01:30:00,
2013-05-26 21:35:00,47.7,22.7,33.00,NW,312,0.0,0.0,37,0.00,,---,0.00,VWS V14.01,2013-05-27 01:35:00,
2013-05-26 21:40:00,47.7,22.7,33.00,NW,313,0.0,0.0,37,0.00,,---,0.00,VWS V14.01,2013-05-27 01:40:00,
2013-05-26 21:45:00,47.7,22.7,33.00,NW,312,0.0,0.0,37,0.00,,---,0.00,VWS V14.01,2013-05-27 01:45:00,
2013-05-26 21:50:00,47.7,22.7,33.00,NW,312,0.0,0.0,37,0.00,,---,0.00,VWS V14.01,2013-05-27 01:50:00,
2013-05-26 21:55:00,47.7,22.7,33.00,NW,312,0.0,0.0,37,0.00,,---,0.00,VWS V14.01,2013-05-27 01:55:00,
2013-05-26 22:00:00,47.7,22.7,33.00,NW,312,0.0,0.0,37,0.00,,---,0.00,VWS V14.01,2013-05-27 02:00:00,
2013-05-26 22:05:00,47.5,22.5,33.00,NW,312,0.0,0.0,37,0.00,,---,0.00,VWS V14.01,2013-05-27 02:05:00,
2013-05-26 22:10:00,47.5,22.5,33.00,NW,312,0.0,0.0,37,0.00,,---,0.00,VWS V14.01,2013-05-27 02:10:00,
2013-05-26 22:15:00,47.5,22.5,33.00,NNW,330,0.0,0.0,37,0.00,,---,0.00,VWS V14.01,2013-05-27 02:15:00,
2013-05-26 22:20:00,47.5,22.5,33.00,NNW,330,0.0,0.0,37,0.00,,---,0.00,VWS V14.01,2013-05-27 02:20:00,
2013-05-26 22:25:00,47.5,22.5,33.00,NNW,330,0.0,0.0,37,0.00,,---,0.00,VWS V14.01,2013-05-27 02:25:00,
2013-05-26 22:30:00,47.3,22.4,33.00,NNW,342,0.0,0.0,37,0.00,,---,0.00,VWS V14.01,2013-05-27 02:30:00,
2013-05-26 22:35:00,46.9,22.0,33.00,NNW,342,0.0,0.0,37,0.00,,---,0.00,VWS V14.01,2013-05-27 02:35:00,
2013-05-26 22:40:00,46.6,21.7,33.00,NNW,342,0.0,0.0,37,0.00,,---,0.00,VWS V14.01,2013-05-27 02:40:00,
2013-05-26 22:45:00,46.6,21.7,33.00,NNW,342,0.0,0.0,37,0.00,,---,0.00,VWS V14.01,2013-05-27 02:45:00,
2013-05-26 22:50:00,46.4,21.6,33.00,NNW,342,0.0,0.0,37,0.00,,---,0.00,VWS V14.01,2013-05-27 02:50:00,
2013-05-26 22:55:00,46.2,22.0,33.00,NNW,342,0.0,0.0,38,0.00,,---,0.00,VWS V14.01,2013-05-27 02:55:00,
2013-05-26 23:00:00,46.0,21.9,33.00,NNW,342,0.0,0.0,38,0.00,,---,0.00,VWS V14.01,2013-05-27 03:00:00,
2013-05-26 23:05:00,46.0,21.9,33.00,NNW,342,0.0,0.0,38,0.00,,---,0.00,VWS V14.01,2013-05-27 03:05:00,
2013-05-26 23:10:00,46.2,22.0,33.00,NNW,342,0.0,0.0,38,0.00,,---,0.00,VWS V14.01,2013-05-27 03:10:00,
2013-05-26 23:15:00,46.2,22.0,33.00,NNW,342,0.0,0.0,38,0.00,,---,0.00,VWS V14.01,2013-05-27 03:15:00,
2013-05-26 23:20:00,46.2,22.0,33.00,NNW,345,0.0,0.0,38,0.00,,---,0.00,VWS V14.01,2013-05-27 03:20:00,
2013-05-26 23:25:00,45.9,21.7,33.00,NNW,346,0.0,0.0,38,0.00,,---,0.00,VWS V14.01,2013-05-27 03:25:00,
2013-05-26 23:30:00,45.7,21.5,33.00,NNW,346,0.0,0.0,38,0.00,,---,0.00,VWS V14.01,2013-05-27 03:30:00,
2013-05-26 23:35:00,45.5,21.4,33.00,NNW,346,0.0,0.0,38,0.00,,---,0.00,VWS V14.01,2013-05-27 03:35:00,
2013-05-26 23:40:00,45.5,21.4,33.00,NNW,346,0.0,0.0,38,0.00,,---,0.00,VWS V14.01,2013-05-27 03:40:00,
2013-05-26 23:45:00,45.3,21.2,33.00,NNW,346,0.0,0.0,38,0.00,,---,0.00,VWS V14.01,2013-05-27 03:45:00,
2013-05-26 23:50:00,45.3,21.2,33.00,NNW,346,0.0,0.0,38,0.00,,---,0.00,VWS V14.01,2013-05-27 03:50:00,
2013-05-26 23:55:00,45.1,21.1,33.00,NNW,346,0.0,0.0,38,0.00,,---,0.00,VWS V14.01,2013-05-27 03:55:00,